sat.trackr.live / text

‹ back to catalog

ONEWEB-0413

NORAD 50490 · 2021-132X

PAYLOAD ACTIVE UNKNOWN

§ Identity

Operator
Country
UK
Launch date
2021-12-27
Launch site
TYMSC
Launch vehicle
Mass (kg)
RCS (m²)

Purposes: comms

External: N2YO · Heavens-Above · Gunter

§ Orbital elements

Epoch: 2026-05-25T01:02:34.697760Z

Period
109.20 min
Inclination
87.9160°
Eccentricity
0.0001805
Mean motion
13.18687189 rev/d
Perigee alt
1,188.4 km
Apogee alt
1,191.1 km
Semi-major
7,567.9 km
B*
7.9868e-5
RAAN
340.0633°
Arg perigee
79.4157°
Mean anomaly
280.7178°
Rev number
21,854

§ Raw data

ONEWEB-04131 50490U 21132X   26145.04345715  .00000044  00000+0  79868-4 0  99932 50490  87.9160 340.0633 0001805  79.4157 280.7178 13.18687189218542

JSON: /api/v1/satellites/50490 · /tle

For live sub-satellite position, see the globe view (requires WebGL).

§ Visibility from observer

Set your observer location to see the next 7 days of passes ≥ 10°. The values pass through the URL so the page stays shareable.

No JS? Fill the form by hand. The geolocation button needs JavaScript.